CZ-6A DEB, 54409

Orbit data source: Space-Track

CZ-6A DEB, 54409 is space debris in SSO originally from a launch on Fri, 11 Nov 2022 UTC launched from the Taiyaun Space Center, China (TSC). Debris objects in space refer to the collection of defunct objects orbiting the Earth. Examples of debris include non-operational satellites, rocket bodies, and fragments generated from explosions, collisions, or faulty payload assembly.

Loading next visibility...
Identifier
54409, 2022-151EH
Orbit
SSO
Country
Flag of CNCN / PRC
Related business
Manufacturer
SAST
Mission
Spacecraft
Bus & Motor
Unknown
Mass
Unknown
Launch date (UTC)
2022-11-11 (4 years ago)
Launch vehicle
Unknown
Launch site
Taiyaun Space Center, China (TSC)
Object type
Payload
Rocket body
Debris
Shape & HBR
Unknown shape, 0.1 m
Radar Cross Section
Small (<0.1 m²)

Expand to show TLE details & history
Last TLE update: 10 hours ago

TLE from 10 hours ago
0 CZ-6A DEB
1 54409U 22151EH  26254.55916816  .00001689  00000-0  69878-3 0  9998
2 54409  98.7551 255.3668 0134125 308.1923  50.7237 14.23247589197934
Epoch: 2026-09-11T13:25Z
TLE epoch observation values (Epoch: 2026-09-11T13:25:12.129Z)
Latitude
0.00001°
Longitude
63.48547°
Altitude
757.011 km
Speed
7.507 km/s
True Right ascension
17h 01m 28s
True Declination
0° 00' 00"
Sunlit
Object was in daylight at epoch
Visualization orbit readout
Latitude
Unknown
Longitude
Unknown
Altitude
Unknown
Speed
Unknown
Apparent Right ascension
Unknown
Apparent Declination
Unknown
Sunlit
N/A
Visualization observer readout
Local Sidereal Time
15:49:50
Azimuth
Unknown
Elevation
Unknown
Doppler factor
Unknown
Orbital elements
Apogee altitude
907.978 km
Perigee altitude
715.115 km
Semi-major axis
7,189.683 km
Eccentricity
0.01341
Inclination
98.7551°
RAAN
255.3668°
Arg. of periapsis
308.1923°
True anomaly
51.92613°
Mean anomaly
50.7237°
Eccentric anomaly
51.32364°
Mean motion
3.56023 °/min
Orbital period
101.12 mins
BSTAR
0.00069878
Loading maneuver chart data...
Computing Atmospheric mass density...
Loading historical data...
Loading historical data...
Loading historical data...
Loading historical data...
Loading historical data...
Loading historical data...
Loading historical data...

Documentation

Showing up to 5 results
|